Weather reports worldwide

Advertisment
Baltasound, United Kingdom (3002): temperature & dewpoint: 17.03.2017 14:00:00 - 23.03.2017 14:00:00 (GMT)Baltasound, United Kingdom (3002): temperature -20cm: 17.03.2017 14:00:00 - 23.03.2017 14:00:00 (GMT)Baltasound, United Kingdom (3002): wind speed & gusts: 17.03.2017 14:00:00 - 23.03.2017 14:00:00 (GMT)Baltasound, United Kingdom (3002): wind direction: 17.03.2017 14:00:00 - 23.03.2017 14:00:00 (GMT)Baltasound, United Kingdom (3002): reduced air pressure: 17.03.2017 14:00:00 - 23.03.2017 14:00:00 (GMT)Baltasound, United Kingdom (3002): visibility: 17.03.2017 14:00:00 - 23.03.2017 14:00:00 (GMT)Baltasound, United Kingdom (3002): precipitation: 17.03.2017 14:00:00 - 23.03.2017 14:00:00 (GMT)
Date & Time tt [°C] td [°C] tt -20cm [°C] ff [km/h] ff [kn] fx [km/h] fx [kn] dd ppp [hPa] vv [km] rr [mm]
23.03.2017 14:00:00 6,7 3,1 - 37 20 50 27 W 1025,8 25 0,0
23.03.2017 13:00:00 7,2 2,3 - 42 23 54 29 W 1025,8 26 0,0
23.03.2017 12:00:00 7,0 2,6 - 37 20 52 28 W 1025,6 30 0,0
23.03.2017 11:00:00 7,5 0,6 - 39 21 52 28 W 1025,0 30 0,0
23.03.2017 10:00:00 7,4 1,2 - 34 18 50 27 W 1024,9 25 0,0
23.03.2017 09:00:00 6,1 1,2 4,7 34 18 - - WSW 1024,7 29 0,0
23.03.2017 08:00:00 6,0 0,5 - 31 17 - - W 1024,4 40 0,0
23.03.2017 07:00:00 5,1 -0,5 - 29 16 - - W 1024,0 45 0,0
23.03.2017 06:00:00 4,7 -0,1 - 28 15 - - W 1023,6 26 0,0
23.03.2017 05:00:00 4,4 -1,4 - 31 17 - - W 1023,0 45 0,0
23.03.2017 04:00:00 4,3 -0,9 - 31 17 46 25 W 1022,7 28 0,0
23.03.2017 03:00:00 3,9 -1,1 - 31 17 - - W 1022,5 35 0,0
23.03.2017 02:00:00 3,4 -1,6 - 28 15 - - W 1022,4 50 0,0
23.03.2017 01:00:00 3,8 -1,0 - 29 16 - - W 1022,4 40 0,0
23.03.2017 00:00:00 2,9 -1,9 - 24 13 - - W 1022,1 35 0,0
22.03.2017 23:00:00 2,0 -2,9 - 21 11 - - W 1021,8 50 0,0
22.03.2017 22:00:00 2,0 -2,7 - 16 9 - - W 1021,7 45 0,0
22.03.2017 21:00:00 1,2 -3,5 - 16 9 - - W 1021,3 50 0,0
22.03.2017 20:00:00 1,0 -3,5 - 15 8 - - W 1020,7 45 0,0
22.03.2017 19:00:00 1,1 -4,4 - 9 5 - - WNW 1019,9 45 0,0
22.03.2017 18:00:00 2,8 -4,0 - 15 8 - - WNW 1019,1 50 0,0
22.03.2017 17:00:00 3,2 -3,9 - 13 7 - - NW 1018,2 35 0,0
22.03.2017 16:00:00 3,2 -3,4 - 18 10 - - NNW 1017,6 45 0,0
22.03.2017 15:00:00 3,8 -2,7 - 26 14 - - NW 1016,8 30 0,0
22.03.2017 14:00:00 3,5 -2,5 - 24 13 - - NNW 1016,3 30 0,0
22.03.2017 13:00:00 3,6 -1,6 - 26 14 46 25 NNW 1015,8 45 0,0
22.03.2017 12:00:00 3,4 -1,2 - 29 16 - - NNW 1014,7 40 0,0
22.03.2017 11:00:00 3,4 -1,2 - 28 15 - - N 1013,4 30 0,0
22.03.2017 10:00:00 3,4 -0,5 - 29 16 - - NNW 1012,3 24 0,2
22.03.2017 09:00:00 1,7 -1,1 5,0 24 13 - - N 1011,3 23 0,2
22.03.2017 08:00:00 1,6 -2,6 - 24 13 - - NNW 1010,2 35 0,0
22.03.2017 07:00:00 1,5 -1,9 - 31 17 - - NNW 1009,2 7 0,0
22.03.2017 06:00:00 2,4 -3,2 - 26 14 - - NNW 1007,7 23 0,2
22.03.2017 05:00:00 1,7 -0,9 - 18 10 50 27 N 1006,5 19 0,0
22.03.2017 04:00:00 2,2 -3,0 - 24 13 - - NNW 1005,4 35 0,0
22.03.2017 03:00:00 2,4 -2,7 - 26 14 - - NNW 1004,2 35 0,0
22.03.2017 02:00:00 2,1 -0,5 - 21 11 - - N 1003,5 21 0,2
22.03.2017 01:00:00 0,8 -0,5 - 26 14 - - NW 1003,0 1,9 0,0
22.03.2017 00:00:00 0,9 -0,9 - 34 18 - - NW 1001,9 30 0,0
21.03.2017 23:00:00 1,4 -1,8 - 28 15 - - NNW 1000,7 40 0,2
21.03.2017 22:00:00 1,5 -1,9 - 22 12 - - N 999,7 4,6 0,0
21.03.2017 21:00:00 1,3 -2,3 - 22 12 - - NNW 998,9 2,7 0,0
21.03.2017 20:00:00 1,9 -3,7 - 21 11 - - NNW 997,7 30 0,0
21.03.2017 19:00:00 2,1 -2,9 - 24 13 - - NNW 996,8 35 0,0
21.03.2017 18:00:00 2,5 -2,7 - 24 13 - - NNW 995,7 45 0,0
21.03.2017 17:00:00 2,9 -1,9 - 26 14 - - N 994,5 40 0,0
21.03.2017 16:00:00 3,2 -0,5 - 29 16 - - N 993,3 24 0,0
21.03.2017 15:00:00 3,4 -0,3 - 28 15 - - N 992,4 28 0,4
21.03.2017 14:00:00 4,3 1,7 - 24 13 - - NE 991,6 17 -
21.03.2017 13:00:00 - - - 16 9 - - N - - -
21.03.2017 12:00:00 - - - 24 13 - - NNW - - -
21.03.2017 11:00:00 - - - 18 10 - - NW - - -
21.03.2017 10:00:00 5,0 -0,8 - 18 10 - - WNW 988,4 45 0,0
21.03.2017 09:00:00 3,0 -1,1 5,0 11 6 - - NW 987,7 35 0,0
21.03.2017 08:00:00 4,0 -0,4 - 18 10 - - NNW 986,9 35 0,0
21.03.2017 07:00:00 3,5 0,2 - 11 6 - - NNW 986,4 24 0,0
21.03.2017 06:00:00 3,0 0,3 - 9 5 - - NW 985,8 35 0,0
21.03.2017 05:00:00 3,8 0,9 - 18 10 - - NNW 985,0 30 0,0
21.03.2017 04:00:00 3,2 1,0 - 24 13 - - NNW 984,4 35 0,0
21.03.2017 03:00:00 3,8 2,0 - 24 13 - - NNW 983,8 18 0,0
21.03.2017 02:00:00 3,8 2,1 - 22 12 - - NNW 983,0 17 0,2
21.03.2017 01:00:00 4,1 2,1 - 22 12 - - WNW 982,2 30 0,0
21.03.2017 00:00:00 4,0 2,3 - 22 12 52 28 WNW 981,8 40 0,0
20.03.2017 23:00:00 4,8 2,0 - 29 16 46 25 NW 980,8 35 0,0
20.03.2017 22:00:00 4,3 2,8 - 31 17 55 30 NNW 979,8 40 0,2
20.03.2017 21:00:00 4,6 3,3 - 35 19 50 27 NNW 978,3 11 0,0
20.03.2017 20:00:00 4,8 3,4 - 35 19 46 25 NNW 976,7 45 0,0
20.03.2017 19:00:00 4,8 3,7 - 29 16 - - NNW 975,0 45 0,6
20.03.2017 18:00:00 5,4 4,4 - 13 7 - - WNW 973,4 13 0,0
20.03.2017 17:00:00 5,7 4,7 - 24 13 46 25 SE 973,4 14 0,6
20.03.2017 16:00:00 5,4 3,3 - 29 16 50 27 SSE 975,3 10 0,2
20.03.2017 15:00:00 6,8 2,6 - 39 21 54 29 S 976,7 26 0,0
20.03.2017 14:00:00 7,1 3,1 - 35 19 52 28 SSW 977,8 18 0,0
20.03.2017 13:00:00 7,3 4,9 - 34 18 57 31 SW 978,8 21 0,0
20.03.2017 12:00:00 5,9 4,7 - 24 13 48 26 S 979,4 25 0,8
20.03.2017 11:00:00 4,8 3,5 - 34 18 46 25 SSE 981,1 9 1,0
20.03.2017 10:00:00 4,9 2,8 - 31 17 50 27 S 982,9 7 1,0
20.03.2017 09:00:00 5,9 4,0 5,2 26 14 - - S 984,3 18 0,0
20.03.2017 08:00:00 5,5 4,0 - 22 12 - - S 985,5 15 0,0
20.03.2017 07:00:00 4,8 3,3 - 22 12 - - S 986,4 35 0,0
20.03.2017 06:00:00 3,5 2,1 - 21 11 - - S 986,5 25 0,0
20.03.2017 05:00:00 3,5 1,6 - 21 11 - - SSW 987,0 18 0,0
20.03.2017 04:00:00 4,5 2,2 - 24 13 - - SW 987,4 19 0,0
20.03.2017 03:00:00 5,0 2,1 - 31 17 48 26 WSW 987,9 18 0,2
20.03.2017 02:00:00 4,8 2,7 - 29 16 - - WSW 988,0 19 0,0
20.03.2017 01:00:00 4,4 2,5 - 35 19 55 30 WSW 987,8 3,2 0,8
20.03.2017 00:00:00 4,8 2,4 - 37 20 72 39 WSW 987,6 18 0,4
19.03.2017 23:00:00 5,6 2,7 - 37 20 50 27 WSW 987,4 17 0,0
19.03.2017 22:00:00 4,0 1,7 - 42 23 78 42 WSW 987,4 13 0,4
19.03.2017 21:00:00 5,3 2,9 - 31 17 61 33 SW 987,0 17 0,4
19.03.2017 20:00:00 4,8 2,3 - 39 21 59 32 SW 987,0 29 0,2
19.03.2017 19:00:00 4,6 1,8 - 35 19 59 32 SW 987,0 30 0,0
19.03.2017 18:00:00 5,7 2,7 - 29 16 50 27 WSW 986,8 30 0,0
19.03.2017 17:00:00 5,5 3,6 - 22 12 59 32 WSW 986,8 30 0,6
19.03.2017 16:00:00 5,9 3,1 - 44 24 57 31 WSW 987,0 17 0,0
19.03.2017 15:00:00 6,2 3,7 - 21 11 54 29 WSW 987,0 25 0,4
19.03.2017 14:00:00 7,5 3,3 - 41 22 50 27 WSW 986,6 27 0,0
19.03.2017 13:00:00 8,0 5,0 - 35 19 46 25 WSW 986,5 28 0,0
19.03.2017 12:00:00 7,2 5,0 - 31 17 54 29 SW 986,5 35 0,6
19.03.2017 11:00:00 7,9 5,7 - 22 12 50 27 SW 986,7 40 0,4
19.03.2017 10:00:00 7,9 5,1 - 24 13 - - WSW 986,8 30 0,0
19.03.2017 09:00:00 7,4 6,0 5,0 29 16 - - WSW 987,1 24 0,6
19.03.2017 08:00:00 5,7 4,9 - 26 14 - - SW 987,5 4,3 0,2
19.03.2017 07:00:00 5,5 4,8 - 26 14 - - SW 987,7 20 1,0
19.03.2017 06:00:00 4,8 4,0 - 26 14 - - SSW 987,8 24 0,4
19.03.2017 05:00:00 5,1 4,2 - 26 14 - - SSW 988,6 18 2,2
19.03.2017 04:00:00 5,3 4,2 - 28 15 52 28 SSW 989,4 7 3,2
19.03.2017 03:00:00 6,5 5,5 - 28 15 - - S 990,4 14 0,2
19.03.2017 02:00:00 6,2 5,1 - 24 13 - - S 991,3 15 0,0
19.03.2017 01:00:00 6,1 5,0 - 28 15 46 25 S 992,6 20 0,0
19.03.2017 00:00:00 5,7 4,6 - 35 19 50 27 S 993,7 22 0,6
18.03.2017 23:00:00 5,2 4,0 - 37 20 54 29 SSE 995,3 4,4 0,2
18.03.2017 22:00:00 5,1 1,9 - 35 19 50 27 SSE 996,4 29 0,0
18.03.2017 21:00:00 4,6 0,8 - 31 17 - - S 998,0 50 0,0
18.03.2017 20:00:00 3,3 -0,6 - 26 14 - - S 998,6 45 0,0
18.03.2017 19:00:00 1,5 -2,2 - 15 8 - - S 999,8 50 0,0
18.03.2017 18:00:00 2,1 -2,4 - 13 7 - - S 1000,6 45 0,0
18.03.2017 17:00:00 3,6 -4,1 - 2 1 - - W 1000,9 40 0,0
18.03.2017 16:00:00 3,7 -4,5 - 9 5 - - W 1001,3 45 0,0
18.03.2017 15:00:00 4,8 -4,2 - 9 5 - - W 1001,5 35 0,0
18.03.2017 14:00:00 4,0 -5,1 - 9 5 - - W 1001,6 35 0,0
18.03.2017 13:00:00 3,7 -4,7 - 15 8 - - W 1002,0 50 0,0
18.03.2017 12:00:00 3,7 -3,5 - 15 8 - - NW 1002,0 35 0,0
18.03.2017 11:00:00 3,1 -1,2 - 24 13 - - NNW 1001,6 30 0,0
18.03.2017 10:00:00 3,3 -2,8 - 21 11 - - NW 1001,4 25 0,0
18.03.2017 09:00:00 2,1 -3,2 5,2 21 11 - - NW 1000,9 45 0,2
18.03.2017 08:00:00 1,9 -4,1 - 15 8 - - WNW 1000,1 50 0,0
18.03.2017 07:00:00 1,5 -3,4 - 18 10 - - WNW 999,8 45 0,0
18.03.2017 06:00:00 0,3 -2,3 - 16 9 - - NW 999,5 45 0,0
18.03.2017 05:00:00 0,0 -1,9 - 15 8 - - N 998,8 45 0,0
18.03.2017 04:00:00 0,8 -1,9 - 26 14 - - NNW 998,6 13 0,0
18.03.2017 03:00:00 0,9 -1,7 - 29 16 - - NNW 998,3 4,5 0,0
18.03.2017 02:00:00 1,3 -2,6 - 21 11 - - NNW 997,4 30 0,0
18.03.2017 01:00:00 1,1 -4,3 - 24 13 - - NW 997,0 45 0,2
18.03.2017 00:00:00 1,7 -2,2 - 22 12 - - NW 996,8 30 0,0
17.03.2017 23:00:00 1,1 -1,5 - 26 14 - - NNW 996,6 30 0,0
17.03.2017 22:00:00 1,3 -1,3 - 18 10 - - NNW 996,6 30 0,0
17.03.2017 21:00:00 0,4 -1,4 - 9 5 - - WNW 996,3 26 0,0
17.03.2017 20:00:00 1,4 -2,3 - 16 9 - - NW 996,0 35 0,0
17.03.2017 19:00:00 1,7 -3,1 - 16 9 - - NW 996,2 45 0,0
17.03.2017 18:00:00 2,7 -1,8 - 15 8 - - NNW 995,9 30 0,0
17.03.2017 17:00:00 3,7 -2,0 - 21 11 - - WNW 996,2 35 0,0
17.03.2017 16:00:00 4,2 -3,6 - 24 13 - - NW 996,3 50 0,0
17.03.2017 15:00:00 4,6 -2,5 - 29 16 - - NW 996,5 30 0,0
17.03.2017 14:00:00 5,5 -1,1 - 29 16 - - WNW 996,7 30 0,0

tt = temperature
td = dewpoint
tt -20cm = temperature -20cm
ff = wind speed
fx = gusts
dd = wind direction
ppp = reduced air pressure
vv = visibility
rr = precipitation

Next stations